Location: Cointrin
(46.2167°N, 6.1167°E)
Time: 06:51:09
(UTC+00:00)

Feng Yun 1-1 Rocket - Pass Details

Date: 08 February 2023
Orbit: 830 x 933 km, 99.1° (Epoch: 26 March)

Event Time Altitude Azimuth Distance (km) Brightness Sun altitude
Rises 18:14:39 0° 146° (SE) 3,431 7.1 -15.0°
Reaches altitude 10° 18:17:06 10° 141° (SE) 2,484 6.3 -15.4°
Maximum altitude 18:22:22 49° 68° (ENE) 1,082 4.4 -16.3°
Drops below altitude 10° 18:27:34 10° 355° (N) 2,456 6.6 -17.2°
Sets 18:29:58 0° 350° (N) 3,389 7.4 -17.6°
